Murray, KY

9:24 PM CST on December 11, 2019 (GMT -0600)
Kyle-Oakley

Weather History for KCEY - October, 2019

Change the Weather History Date:

Tuesday, October 1, 2019

  Actual Average (KPAH) Record (KPAH)
Temperature  
Mean Temperature 80 °F -  
Max Temperature 93 °F 76 °F 95 °F (2019)
Min Temperature 66 °F 51 °F 35 °F (1984)
Cooling Degree Days 14    
Growing Degree Days 30 (Base 50)    
Moisture  
Dew Point 67 °F    
Average Humidity 71    
Maximum Humidity 100    
Minimum Humidity 38    
Precipitation  
Precipitation 0.00 in - - ()
Sea Level Pressure  
Sea Level Pressure 30.06 in    
Wind  
Wind Speed 4 mph (SSW)    
Max Wind Speed 13 mph    
Max Gust Speed 18 mph    
Visibility 10 miles    
Events      
Averages and records for this station are not official NWS values.
T = Trace of Precipitation, MM = Missing Value Source: NWS Daily Summary

Daily Weather History Graph

Daily Weather History Graph

Search for Another Location

Airport or City:

Astronomy

Oct. 01, 2019 Rise Set
Actual Time 6:48 AM CDT 6:37 PM CDT
Civil Twilight 6:22 AM CDT 7:02 PM CDT
Nautical Twilight 5:52 AM CDT 7:32 PM CDT
Astronomical Twilight 5:22 AM CDT 8:03 PM CDT
Moon 9:59 AM CDT (10/1) 8:55 PM CDT (10/1)
Length of Visible Light 12h 40m
Length of Day
11h 48m
Waxing Crescent, 12% of the Moon is Illuminated
Oct 1
Waxing Crescent
Oct 5
First Quarter
Oct 13
Full
Oct 21
Last Quarter
Oct 27
New

Hourly Weather History & Observations

Time (CDT) Temp. Heat Index Dew Point Humidity Pressure Visibility Wind Dir Wind Speed Gust Speed Precip Events Conditions
12:15 AM 73.4 °F - 69.8 °F 88% 30.05 in 10.0 mi SSW 3.5 mph - N/A   Clear
12:35 AM 71.6 °F - 71.6 °F 100% 30.05 in 10.0 mi Calm Calm - N/A   Clear
12:55 AM 71.6 °F - 71.6 °F 100% 30.05 in 10.0 mi Calm Calm - N/A   Clear
1:15 AM 69.8 °F - 69.8 °F 100% 30.05 in 10.0 mi South 4.6 mph - N/A   Clear
1:35 AM 68.0 °F - 68.0 °F 100% 30.06 in 10.0 mi SSE 3.5 mph - N/A   Clear
1:55 AM 68.0 °F - 68.0 °F 100% 30.06 in 10.0 mi South 4.6 mph - N/A   Clear
2:15 AM 68.0 °F - 68.0 °F 100% 30.05 in 10.0 mi South 3.5 mph - N/A   Clear
2:35 AM 69.8 °F - 69.8 °F 100% 30.05 in 10.0 mi Calm Calm - N/A   Clear
2:55 AM 68.0 °F - 68.0 °F 100% 30.05 in 10.0 mi SSE 3.5 mph - N/A   Clear
3:15 AM 68.0 °F - 68.0 °F 100% 30.05 in 8.0 mi South 3.5 mph - N/A   Clear
3:35 AM 68.0 °F - 68.0 °F 100% 30.05 in 10.0 mi South 6.9 mph - N/A   Clear
3:55 AM 69.8 °F - 69.8 °F 100% 30.05 in 10.0 mi South 5.8 mph - N/A   Unknown
4:15 AM 68.0 °F - 68.0 °F 100% 30.06 in 10.0 mi SSW 3.5 mph - N/A   Unknown
4:35 AM 69.8 °F - 69.8 °F 100% 30.06 in 10.0 mi SSW 3.5 mph - N/A   Unknown
4:55 AM 69.8 °F - 69.8 °F 100% 30.07 in 10.0 mi SSW 3.5 mph - N/A   Clear
5:15 AM 69.8 °F - 69.8 °F 100% 30.07 in 10.0 mi South 3.5 mph - N/A   Clear
5:35 AM 68.0 °F - 68.0 °F 100% 30.07 in 10.0 mi SSW 3.5 mph - N/A   Clear
5:55 AM 68.0 °F - 68.0 °F 100% 30.08 in 9.0 mi Calm Calm - N/A   Unknown
6:15 AM 68.0 °F - 68.0 °F 100% 30.09 in 7.0 mi South 3.5 mph - N/A   Unknown
6:35 AM 66.2 °F - 66.2 °F 100% 30.09 in 8.0 mi Calm Calm - N/A   Clear
6:55 AM 66.2 °F - 66.2 °F 100% 30.10 in 9.0 mi Calm Calm - N/A   Clear
7:15 AM 66.2 °F - 66.2 °F 100% 30.10 in 9.0 mi Calm Calm - N/A   Clear
7:35 AM 68.0 °F - 68.0 °F 100% 30.10 in 10.0 mi South 3.5 mph - N/A   Clear
7:55 AM 71.6 °F - 71.6 °F 100% 30.11 in 9.0 mi South 3.5 mph - N/A   Clear
8:15 AM 75.2 °F - 73.4 °F 94% 30.11 in 10.0 mi South 3.5 mph - N/A   Clear
8:35 AM 78.8 °F - 71.6 °F 78% 30.12 in 10.0 mi SSW 3.5 mph - N/A   Clear
8:55 AM 82.4 °F 85.4 °F 68.0 °F 62% 30.12 in 10.0 mi Calm Calm - N/A   Clear
9:15 AM 82.4 °F 85.4 °F 68.0 °F 62% 30.12 in 10.0 mi SW 6.9 mph - N/A   Clear
9:35 AM 86.0 °F 89.4 °F 68.0 °F 55% 30.13 in 10.0 mi SSW 6.9 mph - N/A   Clear
9:55 AM 86.0 °F 89.4 °F 68.0 °F 55% 30.12 in 10.0 mi SSW 5.8 mph - N/A   Clear
10:15 AM 87.8 °F 90.4 °F 66.2 °F 49% 30.12 in 10.0 mi SW 8.1 mph - N/A   Clear
10:35 AM 89.6 °F 92.2 °F 66.2 °F 46% 30.12 in 10.0 mi SW 8.1 mph - N/A   Clear
10:55 AM 89.6 °F 92.2 °F 66.2 °F 46% 30.11 in 10.0 mi SW 10.4 mph - N/A   Clear
11:15 AM 89.6 °F 92.2 °F 66.2 °F 46% 30.11 in 10.0 mi SSW 10.4 mph - N/A   Clear
11:35 AM 89.6 °F 92.2 °F 66.2 °F 46% 30.11 in 10.0 mi WSW 5.8 mph 16.1 mph N/A   Clear
11:55 AM 89.6 °F 91.1 °F 64.4 °F 43% 30.10 in 10.0 mi SW 9.2 mph - N/A   Clear
12:15 PM 91.4 °F 93.2 °F 64.4 °F 41% 30.09 in 10.0 mi South 10.4 mph 17.3 mph N/A   Scattered Clouds
1:15 PM 91.4 °F 94.0 °F 66.2 °F 43% 30.08 in 10.0 mi SW 12.7 mph - N/A   Mostly Cloudy
1:55 PM 89.6 °F 91.1 °F 64.4 °F 43% 30.06 in 10.0 mi WSW 5.8 mph - N/A   Mostly Cloudy
2:15 PM 91.4 °F 93.2 °F 64.4 °F 41% 30.06 in 10.0 mi WSW 12.7 mph 18.4 mph N/A   Partly Cloudy
2:35 PM 91.4 °F 93.2 °F 64.4 °F 41% 30.05 in 10.0 mi WSW 9.2 mph - N/A   Scattered Clouds
2:55 PM 93.2 °F 94.9 °F 64.4 °F 38% 30.05 in 10.0 mi South 5.8 mph - N/A   Partly Cloudy
3:15 PM 91.4 °F 93.2 °F 64.4 °F 41% 30.04 in 10.0 mi SW 6.9 mph - N/A   Scattered Clouds
3:35 PM 93.2 °F 94.9 °F 64.4 °F 38% 30.03 in 10.0 mi SW 5.8 mph - N/A   Mostly Cloudy
3:55 PM 93.2 °F 94.9 °F 64.4 °F 38% 30.03 in 10.0 mi South 12.7 mph 18.4 mph N/A   Scattered Clouds
4:15 PM 91.4 °F 93.2 °F 64.4 °F 41% 30.03 in 10.0 mi South 8.1 mph - N/A   Mostly Cloudy
4:35 PM 91.4 °F 93.2 °F 64.4 °F 41% 30.03 in 10.0 mi SSW 6.9 mph - N/A   Scattered Clouds
4:55 PM 89.6 °F 91.1 °F 64.4 °F 43% 30.02 in 10.0 mi SSW 9.2 mph - N/A   Scattered Clouds
5:15 PM 91.4 °F 93.2 °F 64.4 °F 41% 30.02 in 10.0 mi South 9.2 mph - N/A   Partly Cloudy
5:35 PM 89.6 °F 91.1 °F 64.4 °F 43% 30.02 in 10.0 mi SSW 5.8 mph - N/A   Clear
5:55 PM 89.6 °F 91.1 °F 64.4 °F 43% 30.01 in 10.0 mi South 3.5 mph - N/A   Clear
6:15 PM 86.0 °F 87.3 °F 64.4 °F 48% 30.01 in 10.0 mi South 5.8 mph - N/A   Clear
6:35 PM 84.2 °F 85.6 °F 64.4 °F 51% 30.02 in 10.0 mi SSW 4.6 mph - N/A   Clear
6:55 PM 84.2 °F 85.6 °F 64.4 °F 51% 30.02 in 10.0 mi South 4.6 mph - N/A   Clear
7:15 PM 80.6 °F 82.7 °F 66.2 °F 61% 30.02 in 10.0 mi SSW 3.5 mph - N/A   Clear
7:35 PM 80.6 °F 82.7 °F 66.2 °F 61% 30.01 in 10.0 mi South 4.6 mph - N/A   Clear
7:55 PM 77.0 °F - 68.0 °F 74% 30.01 in 10.0 mi South 4.6 mph - N/A   Clear
8:15 PM 77.0 °F - 68.0 °F 74% 30.01 in 10.0 mi South 5.8 mph - N/A   Clear
8:35 PM 77.0 °F - 66.2 °F 69% 30.01 in 10.0 mi SSE 5.8 mph - N/A   Clear
8:55 PM 75.2 °F - 68.0 °F 78% 30.01 in 10.0 mi South 5.8 mph - N/A   Clear
9:15 PM 77.0 °F - 66.2 °F 69% 30.01 in 10.0 mi South 5.8 mph - N/A   Clear
9:35 PM 77.0 °F - 66.2 °F 69% 30.01 in 10.0 mi South 5.8 mph - N/A   Clear
9:55 PM 77.0 °F - 66.2 °F 69% 30.01 in 10.0 mi SSW 5.8 mph - N/A   Clear
10:15 PM 77.0 °F - 66.2 °F 69% 30.01 in 10.0 mi South 5.8 mph - N/A   Clear
10:35 PM 75.2 °F - 68.0 °F 78% 30.01 in 10.0 mi South 4.6 mph - N/A   Clear
10:55 PM 75.2 °F - 68.0 °F 78% 30.01 in 10.0 mi South 5.8 mph - N/A   Clear
11:15 PM 75.2 °F - 66.2 °F 73% 30.01 in 10.0 mi SSW 4.6 mph - N/A   Clear
11:35 PM 75.2 °F - 68.0 °F 78% 30.01 in 10.0 mi SSW 5.8 mph - N/A   Clear
11:55 PM 73.4 °F - 68.0 °F 83% 30.01 in 10.0 mi South 4.6 mph - N/A   Clear